Home > Weather > Sidney > Past weeks

Flag for USA Past Weather in Sidney, Montana, USA — Yesterday and Last 2 Weeks

Now
50 °F

Clear.


Feels Like: 47 °F
Forecast: 46 / 65 °F
Wind: 8 mph from Northwest

Location: Sidney-Richland

Current Time: May 25, 2016 at 11:00:03 PM

Latest Report: May 25, 2016 at 10:35 PM


Visibility: 10 mi

Pressure: 30.41 "Hg (28.32 "Hg at 591m altitude)

Humidity: 82%

Dew Point: 45 °F

Location of SidneyLocation

Past Weather in Sidney — Graph

°F

Sidney Temperature Yesterday

Maximum temperature yesterday: 72 °F (at 4:15 PM)
Minimum temperature yesterday: 39 °F (at 5:35 AM)
Average temperature yesterday: 58 °F

High & Low Weather Summary for the Past Weeks

 TemperatureHumidityPressure
High81 °F (May 19, 2:56 PM)100% (May 20, 3:35 PM)30.42 "Hg (May 20, 3:35 PM)
Low-78 °F (May 20, 3:35 PM)19% (May 22, 3:15 PM)29.58 "Hg (May 21, 6:56 PM)
Average54 °F58%30.14 "Hg
* Reported May 10 9:15 PM — May 25 9:56 PM, Sidney, Weather by CustomWeather, © 2016

Note: Actual official high and low records may vary slightly from our data, if they occured in-between our weather recording intervals... More about our weather records

Advertising

Sidney Weather History for the Previous 24 Hours

Scroll right to see more
 ConditionsComfort  
Time TempWeatherWind HumidityBarometerVisibility
9:56 PM
Wed, May 25
51 °FClear.8 mph83%29.85 "Hg10 mi
9:35 PM52 °FSunny.8 mph82%30.41 "Hg10 mi
9:15 PM52 °FSunny.7 mph82%30.41 "Hg10 mi
8:56 PM52 °FSunny.5 mph83%29.85 "Hg10 mi
8:35 PM54 °FSunny.3 mph77%30.41 "Hg10 mi
8:15 PM59 °FSunny.3 mph63%30.41 "Hg10 mi
7:56 PM60 °FSunny.3 mph62%29.83 "Hg10 mi
7:35 PM61 °FSunny.7 mph59%30.41 "Hg10 mi
7:15 PM63 °FSunny.5 mph56%30.41 "Hg10 mi
6:56 PM62 °FSunny.6 mph56%29.83 "Hg10 mi
6:35 PM61 °FSunny.8 mph59%30.41 "Hg10 mi
6:15 PM63 °FPassing clouds.8 mph56%30.41 "Hg10 mi
5:56 PM62 °FScattered clouds.10 mph56%29.84 "Hg10 mi
5:35 PM63 °FScattered clouds.13 mph56%30.41 "Hg10 mi
5:15 PM63 °FScattered clouds.10 mph56%30.41 "Hg10 mi
4:56 PM61 °FPartly sunny.12 mph60%29.84 "Hg10 mi
4:35 PM61 °FPassing clouds.7 mph59%30.41 "Hg10 mi
4:15 PM61 °FScattered clouds.7 mph59%30.41 "Hg10 mi
3:56 PM60 °FScattered clouds.10 mph60%29.85 "Hg10 mi
3:35 PM61 °FScattered clouds.10 mph59%30.41 "Hg10 mi
3:15 PM59 °FBroken clouds.12 mph63%30.41 "Hg10 mi
2:56 PM60 °FBroken clouds.13 mph62%29.87 "Hg10 mi
2:35 PM59 °FScattered clouds.10 mph68%30.41 "Hg10 mi
2:15 PM57 °FPartly sunny.12 mph67%30.41 "Hg10 mi
1:56 PM58 °FScattered clouds.15 mph65%29.87 "Hg10 mi
1:35 PM57 °FPartly sunny.16 mph67%30.41 "Hg10 mi
1:15 PM57 °FMore clouds than sun.20 mph67%30.41 "Hg10 mi
12:56 PM56 °FOvercast.18 mph72%29.88 "Hg10 mi
12:35 PM55 °FOvercast.17 mph77%30.41 "Hg10 mi
12:15 PM54 °FOvercast.20 mph82%30.41 "Hg10 mi
11:56 AM53 °FLight rain. Mostly cloudy.16 mph86%29.89 "Hg10 mi
11:35 AM54 °FMostly cloudy.13 mph77%30.41 "Hg10 mi
11:15 AM54 °FOvercast.20 mph82%30.41 "Hg10 mi
10:56 AM53 °FOvercast.17 mph83%29.88 "Hg10 mi
10:15 AM52 °FMostly cloudy.18 mph88%30.41 "Hg10 mi
9:56 AM52 °FLight rain. More clouds than sun.17 mph89%29.87 "Hg10 mi
9:35 AM52 °FOvercast.18 mph88%30.41 "Hg10 mi
9:15 AM52 °FOvercast.22 mph88%30.41 "Hg10 mi
8:56 AM51 °FLight rain. More clouds than sun.17 mph92%29.87 "Hg10 mi
8:35 AM52 °FMostly cloudy.18 mph88%30.41 "Hg8 mi
8:15 AM52 °FMostly cloudy.15 mph88%30.41 "Hg4 mi
7:56 AM51 °FLight rain. More clouds than sun.15 mph92%29.86 "Hg7 mi
7:35 AM52 °FOvercast.22 mph88%30.41 "Hg3 mi
7:15 AM52 °FOvercast.12 mph88%30.41 "Hg5 mi
6:56 AM51 °FRain. Overcast.9 mph92%29.85 "Hg8 mi
6:35 AM52 °FMostly cloudy.9 mph88%30.41 "Hg8 mi
6:15 AM52 °FMore clouds than sun.7 mph88%30.41 "Hg10 mi
5:56 AM52 °FLight rain. Mostly cloudy.8 mph86%29.84 "Hg8 mi
5:35 AM52 °FPassing clouds.7 mph88%30.41 "Hg10 mi
5:15 AM52 °FMostly cloudy.14 mph88%30.41 "Hg10 mi
4:55 AM54 °FMostly cloudy.12 mph82%30.41 "Hg10 mi
4:35 AM54 °FMostly cloudy.13 mph77%30.41 "Hg10 mi
4:15 AM54 °FOvercast.9 mph82%30.41 "Hg10 mi
3:56 AM54 °FLight rain. Overcast.9 mph77%29.85 "Hg10 mi
3:35 AM54 °FOvercast.9 mph82%30.41 "Hg10 mi
2:56 AM54 °FLight rain. Overcast.12 mph74%29.88 "Hg10 mi
2:35 AM55 °FOvercast.13 mph63%30.41 "Hg10 mi
2:15 AM55 °FOvercast.13 mph63%30.41 "Hg10 mi
1:56 AM56 °FOvercast.13 mph62%29.87 "Hg10 mi
1:35 AM55 °FOvercast.12 mph63%30.41 "Hg10 mi
1:15 AM57 °FMostly cloudy.14 mph55%30.41 "Hg10 mi
12:56 AM57 °FOvercast.13 mph55%29.88 "Hg10 mi
12:35 AM57 °FOvercast.13 mph51%30.41 "Hg10 mi
12:15 AM57 °FOvercast.12 mph51%30.41 "Hg10 mi
11:56 PM
Tue, May 24
55 °FThundershowers. Overcast.7 mph57%29.88 "Hg10 mi
11:35 PM55 °FPassing clouds.7 mph59%30.41 "Hg10 mi
11:15 PM55 °FPassing clouds.7 mph55%30.41 "Hg10 mi
Weather by CustomWeather, © 2016

See weather overviewHow to use our weather pages